Fremont, MI

3:00 PM EDT on June 22, 2017 (GMT -0400)
Fremont

Weather History for KFFX - January, 2014

Change the Weather History Date:

Tuesday, January 14, 2014

  Actual Average (KMKG) Record (KMKG)
Temperature  
Mean Temperature 26 °F -  
Max Temperature 32 °F 28 °F 53 °F (1952)
Min Temperature 19 °F 15 °F -8 °F (1914)
Degree Days  
Heating Degree Days 40    
Moisture  
Dew Point 25 °F    
Average Humidity 91    
Maximum Humidity 100    
Minimum Humidity 68    
Precipitation  
Precipitation 0.00 in - - ()
Sea Level Pressure  
Sea Level Pressure 29.63 in    
Wind  
Wind Speed 6 mph (South)    
Max Wind Speed 21 mph    
Max Gust Speed 28 mph    
Visibility 8 miles    
Events Snow    
Averages and records for this station are not official NWS values.
T = Trace of Precipitation, MM = Missing Value Source: NWS Daily Summary

Daily Weather History Graph

Daily Weather History Graph

Search for Another Location

Airport or City:

Trip Planner

Search our weather history database for the weather conditions in past years. The results will help you decide how hot, cold, wet, or windy it might be!

Date:

Astronomy

Jan. 14, 2014 Rise Set
Actual Time 8:14 AM EST 5:32 PM EST
Civil Twilight 7:42 AM EST 6:04 PM EST
Nautical Twilight 7:07 AM EST 6:39 PM EST
Astronomical Twilight 6:32 AM EST 7:13 PM EST
Moon 4:38 PM EST (1/14) 6:47 AM EST (1/14)
Length of Visible Light 10h 21m
Length of Day
9h 18m
Waxing Gibbous, 98% of the Moon is Illuminated
Jan 14
Waxing Gibbous
Jan 15
Full
Jan 24
Last Quarter
Jan 30
New
Feb 6
First Quarter

Hourly Weather History & Observations

Time (EST) Temp. Windchill Dew Point Humidity Pressure Visibility Wind Dir Wind Speed Gust Speed Precip Events Conditions
12:12 AM 28.6 °F 23.5 °F 26.6 °F 92% 29.67 in 10.0 mi WSW 4.6 mph - N/A   Mostly Cloudy
12:32 AM 28.8 °F 23.7 °F 26.6 °F 92% 29.68 in 10.0 mi West 4.6 mph - N/A   Mostly Cloudy
12:53 AM 29.3 °F 22.3 °F 26.6 °F 90% 29.68 in 10.0 mi West 6.9 mph - N/A   Scattered Clouds
1:13 AM 28.6 °F 23.5 °F 25.7 °F 89% 29.68 in 10.0 mi WSW 4.6 mph - N/A   Clear
1:35 AM 28.2 °F 22.0 °F 25.3 °F 89% 29.68 in 10.0 mi West 5.8 mph - N/A   Clear
1:55 AM 27.9 °F 20.6 °F 24.1 °F 86% 29.69 in 10.0 mi West 6.9 mph - N/A   Clear
2:15 AM 28.0 °F 22.8 °F 23.4 °F 83% 29.70 in 10.0 mi West 4.6 mph - N/A   Clear
2:30 AM 28.0 °F 24.2 °F 23.4 °F 83% 29.69 in 10.0 mi WSW 3.5 mph - N/A   Clear
2:50 AM 27.0 °F 23.0 °F 23.0 °F 85% 29.69 in 10.0 mi SW 3.5 mph - N/A   Clear
3:11 AM 25.3 °F 21.1 °F 22.5 °F 89% 29.70 in 10.0 mi WSW 3.5 mph - N/A   Clear
3:31 AM 25.3 °F 21.1 °F 23.4 °F 92% 29.71 in 10.0 mi WSW 3.5 mph - N/A   Clear
3:53 AM 24.8 °F - 22.6 °F 91% 29.71 in 10.0 mi Calm Calm - N/A   Clear
4:13 AM 24.8 °F 20.5 °F 23.5 °F 95% 29.70 in 10.0 mi SW 3.5 mph - N/A   Clear
4:33 AM 23.9 °F 19.5 °F 22.6 °F 95% 29.70 in 10.0 mi SW 3.5 mph - N/A   Clear
4:53 AM 24.1 °F 19.7 °F 23.2 °F 96% 29.69 in 10.0 mi South 3.5 mph - N/A   Clear
5:13 AM 22.8 °F - 22.5 °F 99% 29.68 in 10.0 mi Calm Calm - N/A   Mostly Cloudy
5:33 AM 22.1 °F - 21.7 °F 99% 29.68 in 7.0 mi Calm Calm - N/A   Mostly Cloudy
5:53 AM 21.0 °F - 20.7 °F 99% 29.69 in 10.0 mi Calm Calm - N/A   Scattered Clouds
6:14 AM 21.6 °F - 21.4 °F 99% 29.69 in 7.0 mi Calm Calm - N/A   Clear
6:34 AM 20.7 °F - 20.5 °F 99% 29.68 in 7.0 mi Calm Calm - N/A   Clear
6:54 AM 21.4 °F - 21.4 °F 100% 29.69 in 7.0 mi Calm Calm - N/A   Clear
7:14 AM 20.3 °F 15.4 °F 20.3 °F 100% 29.69 in 5.0 mi East 3.5 mph - N/A   Clear
7:34 AM 20.3 °F 15.4 °F 20.3 °F 100% 29.68 in 4.0 mi ESE 3.5 mph - N/A   Mostly Cloudy
7:54 AM 19.9 °F 14.9 °F 19.8 °F 99% 29.68 in 7.0 mi SE 3.5 mph - N/A   Scattered Clouds
8:14 AM 21.7 °F 17.0 °F 21.6 °F 99% 29.68 in 7.0 mi SE 3.5 mph - N/A   Mostly Cloudy
8:34 AM 23.4 °F 15.2 °F 23.0 °F 99% 29.68 in 10.0 mi SE 6.9 mph - N/A   Overcast
8:55 AM 23.9 °F 15.8 °F 23.0 °F 96% 29.68 in 10.0 mi ESE 6.9 mph - N/A   Overcast
9:15 AM 25.3 °F 17.6 °F 23.7 °F 94% 29.69 in 10.0 mi ESE 6.9 mph - N/A   Scattered Clouds
9:35 AM 25.7 °F 20.1 °F 23.9 °F 93% 29.69 in 10.0 mi SE 4.6 mph - N/A   Scattered Clouds
9:55 AM 26.1 °F 18.4 °F 23.9 °F 92% 29.69 in 10.0 mi ESE 6.9 mph - N/A   Mostly Cloudy
10:15 AM 26.6 °F 20.0 °F 24.6 °F 92% 29.69 in 10.0 mi SE 5.8 mph - N/A   Overcast
10:35 AM 27.3 °F 22.0 °F 25.2 °F 92% 29.69 in 7.0 mi SE 4.6 mph - N/A   Overcast
10:55 AM 28.0 °F 20.8 °F 25.5 °F 90% 29.68 in 10.0 mi SE 6.9 mph - N/A   Overcast
11:15 AM 28.9 °F 19.8 °F 25.7 °F 88% 29.67 in 10.0 mi ESE 10.4 mph - N/A   Overcast
11:30 AM 29.7 °F 22.0 °F 25.5 °F 85% 29.67 in 10.0 mi SE 8.1 mph - N/A   Overcast
11:50 AM 30.2 °F 22.6 °F 24.8 °F 80% 29.64 in 10.0 mi SE 8.1 mph - N/A   Overcast
12:11 PM 30.9 °F 25.2 °F 23.9 °F 75% 29.63 in 10.0 mi SSE 5.8 mph - N/A   Overcast
12:31 PM 31.5 °F 24.2 °F 23.4 °F 72% 29.61 in 10.0 mi SE 8.1 mph - N/A   Overcast
12:51 PM 31.8 °F 23.3 °F 22.8 °F 69% 29.61 in 10.0 mi SE 10.4 mph 17.3 mph N/A   Overcast
1:11 PM 32.0 °F 24.2 °F 22.6 °F 68% 29.59 in 10.0 mi SE 9.2 mph - N/A   Overcast
1:31 PM 32.4 °F 24.0 °F 23.0 °F 68% 29.59 in 3.0 mi SSE 10.4 mph 27.6 mph N/A Snow Light Snow
1:51 PM 32.0 °F 20.8 °F 24.4 °F 74% 29.58 in 2.5 mi South 17.3 mph 24.2 mph N/A Snow Light Snow
2:11 PM 31.3 °F 22.1 °F 26.8 °F 83% 29.57 in 2.5 mi South 11.5 mph 20.7 mph N/A Snow Light Snow
2:31 PM 31.1 °F 23.1 °F 28.6 °F 90% 29.57 in 0.8 mi South 9.2 mph - N/A Snow Light Snow
2:51 PM 30.9 °F 24.3 °F 29.3 °F 94% 29.57 in 2.5 mi South 6.9 mph - N/A Snow Light Snow
3:11 PM 31.1 °F 21.9 °F 29.7 °F 94% 29.57 in 3.0 mi SSE 11.5 mph 16.1 mph N/A Snow Light Snow
3:31 PM 31.1 °F 23.1 °F 30.2 °F 96% 29.56 in 1.5 mi South 9.2 mph 16.1 mph N/A Snow Light Snow
3:52 PM 31.5 °F 23.5 °F 30.6 °F 96% 29.56 in 2.0 mi South 9.2 mph - N/A Snow Light Snow
4:12 PM 31.5 °F 23.5 °F 30.7 °F 97% 29.55 in 2.5 mi South 9.2 mph - N/A Snow Light Snow
4:32 PM 31.8 °F 25.4 °F 31.1 °F 97% 29.56 in 2.5 mi South 6.9 mph - N/A Snow Light Snow
4:52 PM 32.0 °F 23.6 °F 31.8 °F 99% 29.55 in 2.0 mi South 10.4 mph 16.1 mph N/A   Drizzle
5:12 PM 32.0 °F 24.8 °F 32.0 °F 100% 29.55 in 2.0 mi South 8.1 mph - N/A   Overcast
5:32 PM 32.4 °F 23.5 °F 32.4 °F 100% 29.56 in 2.0 mi SW 11.5 mph 25.3 mph N/A Snow Light Snow
5:52 PM 32.0 °F 22.5 °F 31.1 °F 96% 29.57 in 4.0 mi WSW 12.7 mph 21.9 mph N/A   Overcast
6:13 PM 31.8 °F 22.8 °F 29.7 °F 92% 29.57 in 10.0 mi WSW 11.5 mph 23.0 mph N/A   Overcast
6:33 PM 31.5 °F 19.4 °F 28.9 °F 90% 29.58 in 10.0 mi SW 19.6 mph 25.3 mph N/A   Overcast
6:53 PM 30.6 °F 19.4 °F 27.1 °F 87% 29.59 in 10.0 mi SW 16.1 mph 25.3 mph N/A   Overcast
7:13 PM 30.0 °F 17.9 °F 25.3 °F 83% 29.59 in 10.0 mi SW 18.4 mph 25.3 mph N/A   Overcast
7:33 PM 29.7 °F 18.6 °F 25.5 °F 85% 29.59 in 10.0 mi SW 15.0 mph 19.6 mph N/A   Overcast
7:53 PM 29.3 °F 16.2 °F 25.2 °F 85% 29.59 in 10.0 mi SW 20.7 mph 25.3 mph N/A   Overcast
8:13 PM 28.9 °F 17.7 °F 24.4 °F 83% 29.60 in 10.0 mi SW 15.0 mph 24.2 mph N/A   Overcast
8:33 PM 28.8 °F 18.4 °F 24.3 °F 83% 29.60 in 10.0 mi SW 12.7 mph 17.3 mph N/A   Overcast
8:53 PM 28.4 °F 17.0 °F 23.9 °F 83% 29.59 in 10.0 mi SSW 15.0 mph 23.0 mph N/A   Overcast
9:13 PM 28.2 °F 17.7 °F 24.1 °F 84% 29.59 in 4.0 mi SW 12.7 mph 19.6 mph N/A Snow Light Snow
9:33 PM 27.3 °F 16.6 °F 25.9 °F 94% 29.58 in 1.2 mi SSW 12.7 mph 18.4 mph N/A Snow Light Snow
9:54 PM 27.1 °F 17.5 °F 26.2 °F 96% 29.58 in 2.0 mi SSW 10.4 mph - N/A Snow Light Snow
10:14 PM 27.3 °F 18.4 °F 26.2 °F 96% 29.57 in 4.0 mi South 9.2 mph 16.1 mph N/A Snow Light Snow
10:34 PM 27.3 °F 19.9 °F 26.4 °F 96% 29.56 in 5.0 mi South 6.9 mph - N/A Snow Light Snow
10:54 PM 27.5 °F 19.3 °F 26.6 °F 96% 29.55 in 10.0 mi South 8.1 mph - N/A Snow Light Snow
11:14 PM 27.5 °F 19.3 °F 26.6 °F 96% 29.54 in 10.0 mi South 8.1 mph - N/A   Overcast
11:34 PM 27.5 °F 23.6 °F 25.7 °F 93% 29.54 in 10.0 mi SSE 3.5 mph - N/A   Overcast
11:54 PM 27.5 °F 22.2 °F 25.3 °F 92% 29.54 in 10.0 mi ESE 4.6 mph - N/A   Overcast